Wind from 311 at 13 knots gusting 15

Air temperature 15.0° C
Dewpoint 13.4° C

Last reported at 2014-Apr-18 13:23 UTC.
Time now 2014-Apr-18 18:26 UTC

Location: N 34°01' W 119°22'.
View on Google Maps.

See reports from other nearby stations

Tides Stations Pressure Air Temp Water Temp Dewpoint Dewpoint depression Visibility Wind Speed Wind Dir Waves Ship positions

  
sailing weather and tide predictions

ANACAPA ISLAND CA US weather

date/time (UTC)wind fromknots sea level pressurealtimeterstation pressurevisibilityair tempwater tempwave heightnotes
2014-Apr-18 13:23 311 13 gusting 15 15.0
2014-Apr-18 12:23 324 9 gusting 11 15.0
2014-Apr-18 11:23 326 7 gusting 11 15.0
2014-Apr-18 10:23 054 4 gusting 11 15.0
2014-Apr-18 09:23 318 6 gusting 8 15.0
2014-Apr-18 08:23 319 6 gusting 10 13.9
2014-Apr-18 07:23 316 7 gusting 13 13.9
2014-Apr-18 06:23 318 9 gusting 10 13.9
2014-Apr-18 05:23 326 9 gusting 10 15.0
2014-Apr-18 04:23 344 8 gusting 9 14.4
2014-Apr-18 03:23 15.6
2014-Apr-18 02:23 351 2 gusting 5 15.6
2014-Apr-18 01:23 301 3 gusting 5 17.2
2014-Apr-18 00:23 297 3 gusting 10 17.2
2014-Apr-17 23:23 018 2 gusting 7 18.3
2014-Apr-17 22:23 043 3 gusting 8 18.9
2014-Apr-17 21:23 094 0 gusting 8 22.8
2014-Apr-17 20:23 016 6 gusting 20 17.8
2014-Apr-17 19:23 167 13 gusting 22 16.7
2014-Apr-17 18:23 195 9 gusting 18 16.1
2014-Apr-17 17:23 041 5 gusting 20 16.1
2014-Apr-17 16:23 135 13 gusting 22 16.1
2014-Apr-17 15:23 161 13 gusting 21 16.1
2014-Apr-17 14:23 137 15 gusting 20 15.0
2014-Apr-17 13:23 121 15 gusting 25 15.0
2014-Apr-17 12:23 116 19 gusting 23 15.0
2014-Apr-17 11:23 149 15 gusting 23 14.4
2014-Apr-17 10:23 136 18 gusting 25 15.6
2014-Apr-17 09:23 240 8 gusting 28 15.0
2014-Apr-17 08:23 155 15 gusting 23 15.0
2014-Apr-17 07:23 120 10 gusting 13 15.0
2014-Apr-17 06:23 046 0 gusting 6 14.4
2014-Apr-17 05:23 110 4 gusting 6 14.4
2014-Apr-17 04:23 027 4 gusting 6 14.4
2014-Apr-17 03:23 339 4 gusting 6 13.9
2014-Apr-17 02:23 303 5 gusting 12 13.9
2014-Apr-17 01:23 298 8 gusting 13 15.0
2014-Apr-17 00:23 303 7 gusting 10 15.6
2014-Apr-16 23:23 292 6 gusting 10 15.6
2014-Apr-16 22:23 318 2 gusting 12 19.4
2014-Apr-16 21:23 223 2 gusting 7 21.1
2014-Apr-16 20:23 344 3 gusting 7 18.9
2014-Apr-16 19:23 348 1 gusting 7 18.9
2014-Apr-16 18:23 235 1 gusting 6 17.8